Temperature
16 16 17 17 20 21 20 19 18 18 18 16 16 17 18 18 18 17 13 13 13 13 13 13 13 13 14 14 14 14 14 14 14 14 14 14 14 15 15 15 15 15 15 15 14 15 15 14 14
16 16 17 18 21 21 19 18 18 17 16 15 15 16 17 16 14 13 13 13 13 13 13 13 13 13 13 13 14 14 14 14 14 14 14 14 14 14 14 14 14 14 14 14 14 14 14 14 14
16 16 17 19 19 20 19 17 17 16 14 15 16 15 15 15 13 12 12 13 13 13 13 13 13 13 13 13 13 14 14 14 14 14 14 14 14 14 14 14 14 14 14 14 14 14 14 14 14
16 16 17 19 18 17 17 17 16 16 15 14 15 16 14 12 12 12 12 13 13 13 13 13 13 13 13 13 13 13 13 13 14 14 14 14 14 14 14 14 14 14 14 14 14 14 14 14 14
16 17 18 18 17 16 16 15 15 16 16 15 15 15 14 12 12 12 12 12 12 12 12 13 13 13 13 13 13 13 13 13 13 13 14 13 13 13 14 14 14 14 14 14 14 14 14 14 14
16 18 19 18 17 16 15 14 15 15 15 14 14 15 14 12 12 12 12 12 12 12 12 12 12 12 13 13 13 13 13 13 13 13 13 13 13 13 13 13 13 13 14 14 14 13 14 13 13
16 17 17 17 16 15 15 14 15 15 15 14 13 14 13 12 11 12 12 12 12 12 12 12 12 12 12 12 12 12 13 13 13 13 13 13 13 13 13 13 13 13 13 13 13 13 13 13 13
14 17 16 16 16 15 14 13 13 14 14 12 12 14 13 11 11 11 11 11 11 11 12 12 12 12 12 12 12 12 12 12 12 13 13 13 13 13 13 13 13 13 13 13 13 13 13 13 13
13 17 16 16 15 15 13 13 13 12 12 12 11 12 11 11 11 11 11 11 11 11 11 11 12 12 11 11 12 12 12 12 12 12 12 12 12 12 12 12 13 13 13 13 13 13 13 13 12
14 16 15 15 15 14 13 13 13 12 13 12 11 11 11 10 10 10 11 11 11 11 11 11 11 11 11 11 11 11 11 12 12 12 12 12 12 12 12 12 12 12 12 12 12 12 12 12 12
14 15 13 13 12 12 12 12 12 13 13 13 12 11 10 10 10 10 10 10 10 10 11 11 11 11 11 11 11 11 11 11 11 11 11 11 11 11 11 11 11 12 12 12 12 12 11 11 11
13 12 12 12 11 11 12 12 11 12 12 11 10 10 10 10 10 10 10 10 10 10 10 10 10 10 11 11 11 11 11 11 11 11 11 11 11 11 11 11 11 11 11 11 11 11 11 11 11
13 12 11 11 10 10 11 11 11 11 11 10 10 10 10 10 10 10 10 10 10 10 10 10 10 10 10 10 10 10 10 10 10 10 10 10 10 11 11 11 11 11 11 11 11 11 11 10 10
12 11 11 11 11 10 11 11 11 11 10 10 10 10 10 10 10 9 9 9 10 10 10 10 10 10 10 10 10 10 10 10 10 10 10 10 10 10 10 10 10 10 10 10 10 10 10 10 10
11 12 12 11 11 11 11 12 12 11 10 10 10 10 9 9 9 9 9 9 9 9 9 9 9 10 10 10 10 10 10 10 10 10 10 10 10 10 10 10 10 10 10 10 10 10 10 10 10
12 13 13 12 11 11 12 14 13 11 10 10 10 10 9 9 9 9 9 9 9 9 9 9 9 9 9 9 9 9 9 9 9 9 9 9 9 9 9 9 9 10 9 9 9 9 9 9 9
13 14 14 13 11 11 12 13 13 10 10 11 10 10 9 9 9 9 9 9 9 9 9 9 9 9 9 9 9 9 9 9 9 9 9 9 9 9 9 9 9 9 9 9 9 9 9 9 9
14 14 13 13 12 11 11 12 13 11 10 11 11 10 9 9 9 9 9 9 9 9 9 9 9 9 9 9 9 9 9 9 9 8 8 8 8 8 8 8 8 8 8 9 8 8 9 8 9
13 13 13 13 11 11 12 12 13 12 11 10 10 10 9 9 9 9 9 8 9 9 9 9 9 8 8 8 8 8 8 8 8 8 8 8 8 8 8 8 8 8 8 8 8 8 8 8 8
12 12 12 12 10 11 11 12 12 12 11 10 10 10 9 9 9 8 8 8 8 8 8 8 8 8 8 8 8 8 8 8 8 8 8 8 8 8 8 8 8 8 8 8 8 8 8 8 8
11 12 12 12 10 10 10 12 13 12 10 10 9 9 9 8 8 8 8 8 8 8 8 8 8 8 8 8 8 8 7 7 7 7 7 7 7 7 7 7 7 7 7 7 7 7 7 7 7
12 11 10 10 11 12 10 12 14 12 11 11 10 9 9 8 8 8 8 7 7 7 7 7 7 7 7 7 7 7 7 7 7 7 7 7 7 7 7 7 7 7 7 7 7 7 7 7 7
11 9 10 10 10 11 10 11 14 12 11 12 11 10 9 8 8 8 8 7 7 7 7 7 7 7 7 7 7 7 7 7 7 7 7 7 7 7 7 7 6 6 6 6 7 7 6 6 6
9 9 9 9 10 10 11 11 13 13 12 12 11 10 9 8 7 7 7 7 7 7 7 7 7 7 7 7 7 7 7 7 6 6 6 6 6 6 6 6 6 6 6 6 6 6 6 6 6
9 11 11 11 11 12 10 10 12 13 12 11 11 10 9 8 7 7 7 7 7 7 7 7 7 7 7 7 6 6 6 6 6 6 6 6 6 6 6 6 6 6 6 6 6 6 6 6 6
10 11 12 12 13 13 9 10 13 11 10 9 9 9 8 8 7 7 7 7 7 7 7 7 7 7 6 6 6 6 6 6 6 6 6 6 6 6 6 6 6 6 5 5 5 5 5 5 5
9 10 10 11 10 11 12 12 12 10 10 9 9 8 8 7 7 7 7 7 7 7 7 7 6 6 6 6 6 6 6 6 6 6 6 6 6 5 6 5 5 5 5 5 5 5 5 5 5
9 9 9 10 10 11 12 12 12 11 11 10 10 9 8 7 7 7 7 7 7 7 6 6 6 6 6 6 6 6 6 5 5 5 5 5 5 5 5 5 5 5 5 5 5 5 4 4 4
7 8 9 10 10 11 12 13 12 12 11 10 10 9 8 7 7 7 7 7 6 6 6 6 6 6 6 6 6 5 5 5 5 5 5 5 5 5 5 5 5 5 4 4 4 4 4 4 4
8 8 9 9 9 9 11 12 11 10 10 9 9 8 7 7 6 6 6 6 6 6 6 6 6 6 6 5 5 5 5 5 5 5 5 5 5 5 5 5 4 4 4 4 4 4 4 4 4
Wind_Speed
4 2 1 2 3 2 3 2 2 3 2 2 2 1 1 2 2 2 4 4 5 3 1 2 2 2 2 2 3 3 4 5 6 6 6 6 6 6 6 6 7 7 8 9 9 10 10 10 11
3 1 1 1 3 4 3 3 3 2 2 1 0 0 1 2 3 3 3 4 4 3 1 2 3 2 1 2 3 3 3 4 5 5 5 5 6 5 6 6 6 6 8 9 9 10 10 10 10
1 2 1 2 2 3 4 3 3 2 2 1 1 1 1 2 2 3 4 4 3 2 2 2 3 2 2 2 2 2 3 4 4 4 5 4 5 5 5 6 6 7 7 8 9 10 10 10 10
1 2 2 2 4 2 2 3 2 2 2 2 1 2 2 3 3 3 3 3 3 3 3 2 3 2 2 1 2 2 3 4 4 4 4 4 4 5 5 6 6 6 7 8 9 9 10 10 10
1 2 3 3 3 3 3 2 1 2 2 1 1 1 2 3 4 4 3 3 2 3 3 2 3 2 2 2 1 2 2 3 4 3 4 4 5 5 5 6 6 7 8 8 9 9 9 10 10
2 2 3 4 5 4 3 1 2 2 1 1 0 0 1 3 4 4 3 2 2 3 3 3 3 2 2 1 0 1 2 3 3 3 3 3 4 5 5 5 6 7 7 8 9 9 9 9 10
1 2 2 4 5 4 3 2 2 2 2 0 1 1 1 2 4 4 2 2 2 3 3 3 3 2 1 1 0 0 1 2 3 3 3 3 4 4 4 5 6 6 7 8 9 8 8 9 9
1 3 4 4 5 4 4 3 1 1 1 1 1 1 1 2 3 3 2 2 2 3 3 3 3 2 2 1 1 0 1 2 3 3 3 3 4 5 4 4 5 6 7 8 8 8 8 8 9
1 2 4 4 5 4 5 3 2 1 1 1 1 2 3 2 2 2 2 2 3 3 3 4 3 2 2 2 2 2 2 2 3 3 3 4 4 4 4 4 5 6 7 8 8 8 8 8 8
0 2 3 3 3 4 4 3 2 3 3 3 2 2 2 1 2 2 3 3 4 4 4 3 4 3 2 2 2 2 2 2 3 3 3 3 3 3 3 5 5 6 7 7 7 7 7 6 6
2 2 4 3 3 3 3 2 2 3 4 4 4 3 2 2 2 3 4 4 4 4 4 3 4 3 2 2 2 2 1 1 1 2 3 3 3 3 3 3 4 5 6 6 6 6 5 5 5
3 3 3 4 3 3 3 2 2 5 5 3 3 3 3 3 3 4 5 5 4 4 4 4 4 3 2 2 1 1 0 0 0 1 2 2 2 2 3 3 2 3 4 4 5 4 5 5 5
3 3 2 3 3 2 2 4 4 6 6 4 3 4 3 4 4 4 4 5 5 4 4 4 3 3 2 2 1 1 1 0 1 1 2 2 2 2 2 2 3 2 4 4 4 4 5 4 4
4 4 3 2 3 3 4 4 4 6 4 4 4 4 4 4 4 4 4 5 5 5 4 4 4 3 2 2 1 1 1 1 1 1 2 3 2 2 2 2 2 2 3 4 5 5 5 4 3
4 3 2 3 3 3 3 5 7 6 4 5 4 4 4 4 4 5 5 5 5 5 5 4 4 3 3 2 2 1 1 2 2 2 2 2 3 3 2 2 3 3 3 4 4 5 5 4 3
3 3 3 3 3 3 5 7 4 4 5 6 5 5 5 5 5 5 5 5 5 5 4 4 3 2 2 2 2 1 1 2 2 3 3 3 3 3 3 2 2 3 4 3 3 4 4 4 3
4 4 5 4 4 4 6 7 4 4 6 7 6 6 5 5 5 5 5 4 4 5 4 3 3 3 2 2 2 2 2 2 2 2 3 4 4 4 3 3 2 4 3 3 3 4 4 4 3
5 5 5 5 4 5 8 11 9 7 8 9 8 7 6 6 5 5 3 3 3 4 3 3 3 2 2 2 2 1 1 1 1 2 2 4 4 4 3 3 3 4 3 3 3 4 4 4 3
3 5 6 4 2 6 11 14 13 10 9 10 9 8 7 6 5 3 2 2 2 3 3 2 2 2 2 2 2 2 2 2 2 2 2 3 4 4 4 3 3 4 3 4 4 4 4 3 3
5 7 7 4 3 5 9 15 13 10 10 9 8 8 7 5 4 3 2 2 2 3 3 3 2 2 2 2 2 2 2 2 2 2 2 3 4 4 4 4 4 4 3 4 5 4 4 3 3
7 8 7 5 3 4 7 9 8 6 7 7 7 7 6 5 5 3 2 2 2 3 3 3 3 3 3 2 2 2 1 1 2 2 2 2 3 4 4 5 4 4 4 4 4 5 4 4 3
7 6 6 6 5 4 3 6 5 6 7 8 7 6 6 5 5 4 3 3 3 3 3 3 3 3 3 3 3 3 3 3 3 2 2 2 3 4 5 5 5 5 4 5 5 4 4 5 4
3 1 4 5 6 6 5 6 6 4 7 8 7 7 6 5 4 4 3 3 3 3 3 3 3 3 3 3 4 4 3 3 2 2 2 2 2 3 4 5 5 5 4 5 5 5 4 5 5
4 3 2 3 4 6 6 7 6 5 6 6 6 6 5 4 4 3 3 3 3 2 2 2 3 3 3 3 4 4 4 3 3 3 3 2 2 2 3 4 4 4 4 5 5 5 6 5 5
4 4 3 4 5 6 3 6 8 4 5 5 5 5 5 4 4 4 3 3 3 3 3 3 3 3 3 4 4 4 4 4 4 4 3 3 2 2 3 4 4 4 4 4 5 5 6 6 6
6 6 4 5 5 4 4 7 5 2 3 4 4 4 4 3 4 4 4 4 4 3 3 3 3 3 4 4 4 4 4 3 3 4 3 4 3 3 4 4 4 4 4 4 5 5 5 5 6
5 6 3 3 4 6 6 6 6 3 4 4 4 4 4 4 4 4 4 4 4 4 4 4 4 4 4 4 4 4 4 4 4 4 4 3 3 3 4 4 5 5 5 5 5 4 5 5 5
3 3 4 5 4 7 7 7 5 5 6 4 3 4 4 4 4 4 4 4 4 4 4 4 4 4 4 4 4 4 4 4 4 4 4 3 4 4 4 5 5 5 5 5 5 4 5 5 5
4 4 5 5 5 6 7 5 2 5 4 4 3 3 3 4 5 5 4 4 3 3 3 3 3 3 4 4 4 4 4 4 4 4 4 4 3 4 4 4 4 4 4 5 5 5 5 6 5
7 6 6 5 6 6 7 7 1 2 2 2 3 4 4 5 5 5 4 3 3 3 3 3 3 3 4 4 4 4 4 4 4 4 4 4 4 4 4 4 4 4 4 5 6 6 6 6 6
Wind_Direction
346 341 263 221 181 167 180 151 141 127 121 40 2 317 358 15 354 46 38 14 356 351 7 85 44 67 89 101 115 121 134 140 133 131 135 140 139 137 132 131 133 134 133 130 125 118 114 109 107
349 313 200 203 209 194 170 160 156 118 51 24 66 71 113 66 35 34 18 355 351 360 34 72 59 66 86 115 119 125 133 135 133 136 141 151 152 147 139 135 135 136 135 133 127 121 117 113 111
42 17 133 156 184 206 151 136 135 96 61 27 94 57 24 46 38 15 4 347 355 17 29 54 54 62 96 127 136 142 140 142 143 142 147 148 150 147 143 140 136 138 138 135 130 126 124 121 116
217 127 112 142 139 107 111 111 107 136 120 52 58 116 96 44 14 2 0 354 8 17 19 46 43 50 74 117 141 161 164 157 152 153 155 156 154 153 148 147 140 141 141 136 133 130 127 125 121
72 153 148 147 147 124 110 91 129 151 142 64 23 121 121 67 20 16 10 5 10 8 4 26 33 28 46 71 141 152 172 169 163 163 160 161 163 158 153 149 146 141 142 139 136 133 131 129 126
129 159 178 179 162 144 137 126 167 155 122 86 348 221 121 59 19 10 2 359 7 10 8 15 15 10 21 29 69 148 154 164 161 163 161 158 155 160 152 154 150 146 145 144 138 137 136 132 128
153 141 149 154 159 169 152 150 179 175 164 73 315 234 170 44 14 356 352 6 13 18 16 9 359 345 317 320 355 216 175 156 158 160 157 152 150 151 149 150 153 147 143 141 137 137 137 133 130
87 134 140 162 172 170 149 154 169 214 179 56 259 248 244 351 352 346 1 8 13 16 12 0 352 340 316 284 240 227 196 170 164 159 146 151 155 151 141 142 141 146 143 138 136 134 134 134 131
183 163 174 173 174 156 157 173 161 211 206 203 242 296 329 336 324 332 347 344 347 353 355 352 348 339 321 307 280 236 203 190 179 172 154 172 180 166 159 144 134 142 144 139 137 135 128 131 131
139 177 164 147 153 152 166 189 185 197 216 233 236 268 313 307 304 303 304 302 309 318 328 335 330 326 315 313 299 271 243 211 206 198 179 177 169 158 159 130 130 136 142 141 137 137 142 150 148
96 137 136 146 150 155 170 191 210 216 240 245 250 263 283 279 284 288 285 285 287 293 306 320 320 315 313 312 292 301 282 243 230 180 169 173 161 151 158 146 149 152 154 153 145 154 163 163 154
118 121 143 144 151 172 188 192 210 235 250 274 255 251 249 263 270 280 288 285 286 289 297 308 316 309 299 299 290 284 288 290 49 132 169 181 170 165 162 159 166 175 167 157 158 165 155 154 153
140 144 138 152 161 189 202 223 245 252 252 258 249 236 238 255 273 280 284 286 284 284 288 298 302 295 294 285 285 265 225 198 161 161 183 191 187 184 176 163 162 174 169 161 157 159 152 144 142
133 141 154 191 203 213 216 241 241 251 237 230 223 230 247 259 275 285 291 292 287 282 284 287 279 275 271 263 261 238 200 167 157 185 193 190 192 186 179 176 168 171 172 167 163 161 152 142 138
131 140 177 208 210 203 214 244 230 230 211 220 225 240 257 264 271 277 282 287 288 280 281 279 270 265 256 243 235 210 188 187 169 170 181 178 186 179 177 184 174 172 169 164 159 155 149 139 137
158 192 211 185 194 193 222 253 212 202 216 231 237 252 263 263 270 276 281 283 290 283 275 274 271 263 254 237 232 214 193 195 187 177 177 181 182 180 176 181 179 168 170 164 164 159 152 150 153
200 220 225 202 200 205 226 256 228 206 228 241 245 253 261 267 275 282 282 281 291 286 276 268 264 250 244 235 217 202 196 200 195 188 182 188 180 178 175 177 169 164 166 167 168 165 158 157 152
213 223 230 227 196 222 240 256 256 241 240 248 251 253 257 260 269 279 280 280 290 285 275 268 267 260 247 232 210 199 200 211 200 193 196 190 183 177 173 171 167 161 159 162 167 163 150 153 147
220 229 244 245 222 246 253 263 264 254 245 247 247 248 251 255 266 274 278 287 298 293 283 276 267 258 241 227 219 217 217 219 214 208 200 191 186 182 178 177 166 165 167 166 165 164 150 144 145
222 237 251 258 240 256 274 273 267 250 238 239 242 243 244 251 262 273 284 299 301 296 289 278 260 241 228 233 234 229 219 220 224 223 200 196 193 190 185 179 172 170 166 162 164 168 164 164 172
229 237 248 260 278 248 285 274 240 227 226 234 238 240 240 241 245 256 276 291 297 293 285 270 266 251 233 228 217 199 193 207 215 223 210 206 194 189 181 184 177 176 172 173 175 179 177 175 186
239 234 239 245 257 258 270 286 249 225 229 228 228 230 233 236 239 245 262 286 293 286 280 270 267 258 237 216 211 209 215 221 224 217 209 202 193 186 177 182 179 180 180 179 179 182 188 179 183
227 184 218 236 247 265 236 254 266 214 236 229 221 223 226 228 231 243 256 269 281 282 278 272 263 255 237 218 213 212 221 224 216 200 192 190 186 181 176 175 177 181 184 185 181 179 190 193 192
154 138 155 210 233 251 227 230 265 219 226 219 213 216 220 224 231 246 260 271 278 282 275 272 259 252 234 218 214 211 214 212 203 203 195 187 183 180 176 176 179 187 192 192 188 182 190 198 197
193 204 229 228 227 245 183 230 256 246 219 222 224 221 226 227 231 244 259 265 271 273 268 262 255 246 228 213 209 213 214 210 205 202 199 189 187 193 190 184 185 192 201 199 194 189 193 201 202
205 224 235 254 260 265 205 238 257 250 233 241 249 244 238 238 242 247 252 254 257 256 253 246 242 239 223 210 207 207 209 211 211 210 204 199 197 199 195 192 193 195 200 200 198 197 199 203 207
191 216 259 265 277 271 250 254 274 231 230 232 239 240 247 246 256 264 260 255 251 247 241 234 231 232 220 207 204 205 208 211 209 209 205 203 198 197 191 189 196 197 198 200 199 202 203 206 212
258 188 186 215 244 258 260 253 245 206 214 215 235 255 262 263 266 273 266 254 250 250 247 237 230 224 219 208 204 207 209 209 206 203 203 204 203 198 191 191 193 194 197 196 197 200 205 207 212
190 203 221 226 245 252 264 259 220 220 209 213 244 277 279 279 278 277 275 260 248 247 247 246 239 229 220 219 211 205 205 206 204 205 205 201 200 200 199 194 194 194 197 198 200 203 206 212 215
236 227 208 230 240 239 258 265 106 228 224 258 287 298 299 293 287 282 275 256 240 240 245 248 251 238 225 221 217 207 201 198 200 206 207 198 197 200 200 194 193 195 200 204 204 205 208 215 220
Height
1513 1514 1515 1517 1517 1516 1520 1524 1525 1527 1528 1531 1531 1530 1528 1528 1530 1535 1536 1532 1532 1532 1532 1532 1532 1532 1532 1532 1532 1532 1533 1533 1533 1533 1534 1534 1535 1535 1536 1536 1536 1537 1537 1537 1538 1538 1539 1539 1540
1514 1515 1517 1518 1513 1515 1522 1524 1526 1528 1531 1532 1532 1531 1530 1532 1534 1534 1533 1532 1531 1531 1531 1531 1531 1531 1531 1531 1531 1532 1532 1532 1533 1533 1533 1534 1534 1535 1535 1536 1536 1536 1537 1537 1538 1539 1539 1539 1540
1514 1515 1518 1516 1515 1515 1521 1526 1528 1531 1533 1532 1532 1532 1533 1534 1534 1534 1533 1531 1531 1531 1531 1531 1530 1530 1531 1531 1531 1531 1531 1531 1532 1532 1533 1533 1534 1534 1535 1535 1536 1536 1537 1537 1538 1538 1539 1540 1540
1515 1518 1519 1518 1520 1524 1525 1528 1531 1531 1532 1533 1532 1533 1534 1535 1535 1534 1532 1531 1531 1531 1530 1530 1530 1530 1530 1530 1530 1530 1530 1531 1531 1531 1532 1532 1533 1534 1534 1535 1535 1536 1536 1537 1538 1538 1539 1540 1540
1516 1517 1517 1520 1524 1527 1529 1532 1532 1531 1531 1533 1533 1532 1534 1535 1533 1533 1532 1531 1531 1530 1530 1529 1529 1529 1529 1529 1529 1529 1529 1529 1530 1530 1531 1531 1532 1532 1533 1534 1535 1535 1536 1537 1537 1538 1539 1539 1540
1517 1516 1516 1519 1524 1529 1531 1533 1532 1531 1532 1533 1533 1533 1534 1534 1533 1532 1531 1531 1530 1529 1529 1528 1528 1528 1528 1528 1528 1528 1528 1528 1529 1529 1529 1530 1530 1531 1532 1533 1534 1534 1535 1536 1537 1538 1538 1539 1540
1518 1516 1517 1520 1525 1528 1531 1533 1532 1532 1532 1534 1534 1533 1533 1534 1532 1531 1530 1530 1529 1528 1528 1527 1526 1526 1526 1526 1526 1526 1526 1527 1527 1527 1528 1528 1529 1530 1531 1532 1533 1533 1534 1535 1536 1537 1538 1539 1539
1517 1519 1521 1523 1524 1527 1531 1532 1533 1533 1533 1534 1534 1533 1533 1533 1531 1530 1530 1529 1528 1527 1527 1526 1525 1525 1525 1525 1525 1524 1525 1525 1525 1526 1526 1527 1527 1528 1529 1530 1531 1532 1533 1534 1535 1536 1537 1538 1539
1518 1519 1519 1522 1524 1526 1531 1531 1533 1533 1533 1533 1533 1533 1533 1531 1530 1529 1529 1528 1527 1526 1525 1524 1524 1523 1523 1523 1522 1522 1523 1523 1523 1524 1524 1525 1525 1526 1527 1528 1529 1531 1532 1533 1534 1535 1536 1537 1538
1519 1518 1520 1524 1525 1527 1530 1531 1532 1532 1531 1531 1532 1531 1530 1530 1529 1528 1527 1526 1525 1524 1523 1523 1522 1521 1521 1520 1520 1520 1521 1521 1521 1522 1522 1523 1524 1524 1525 1527 1528 1529 1530 1532 1533 1534 1535 1536 1538
1520 1520 1524 1527 1528 1529 1530 1531 1531 1530 1529 1529 1529 1529 1529 1528 1527 1526 1525 1524 1523 1522 1522 1521 1520 1519 1519 1518 1518 1518 1518 1519 1519 1520 1520 1521 1522 1522 1523 1525 1526 1527 1529 1530 1531 1532 1534 1535 1536
1522 1525 1526 1527 1528 1529 1529 1530 1530 1529 1528 1528 1528 1527 1527 1526 1525 1524 1523 1522 1521 1520 1519 1518 1518 1517 1517 1516 1516 1516 1516 1516 1517 1517 1518 1519 1519 1520 1521 1523 1524 1525 1527 1528 1529 1530 1532 1533 1535
1522 1525 1527 1528 1528 1529 1529 1528 1528 1526 1526 1526 1526 1525 1525 1524 1523 1522 1521 1520 1519 1518 1517 1516 1515 1515 1514 1514 1514 1514 1514 1513 1514 1515 1515 1516 1517 1518 1519 1520 1522 1523 1524 1526 1527 1528 1530 1531 1533
1524 1525 1526 1527 1528 1528 1528 1527 1527 1523 1524 1524 1523 1523 1522 1522 1521 1520 1519 1517 1516 1515 1514 1513 1513 1512 1511 1511 1511 1511 1511 1512 1512 1512 1513 1513 1515 1516 1516 1517 1519 1521 1522 1523 1525 1527 1528 1530 1531
1525 1525 1525 1526 1526 1526 1527 1523 1522 1521 1522 1521 1521 1521 1520 1519 1518 1517 1516 1515 1513 1512 1511 1510 1510 1509 1509 1508 1509 1509 1509 1509 1510 1510 1510 1511 1512 1513 1514 1515 1516 1518 1520 1521 1523 1525 1526 1528 1530
1524 1522 1520 1522 1524 1525 1526 1516 1517 1519 1519 1519 1519 1518 1517 1516 1515 1514 1513 1512 1511 1510 1509 1508 1507 1506 1506 1506 1506 1506 1507 1507 1507 1507 1508 1508 1509 1510 1512 1513 1514 1516 1518 1519 1521 1522 1524 1526 1528
1520 1516 1515 1519 1522 1522 1522 1513 1514 1516 1516 1516 1515 1515 1514 1513 1513 1511 1510 1509 1508 1507 1506 1505 1505 1504 1504 1504 1504 1504 1504 1504 1504 1505 1505 1506 1507 1508 1509 1511 1512 1513 1515 1517 1519 1520 1522 1524 1526
1513 1513 1515 1515 1518 1520 1517 1511 1511 1513 1513 1512 1512 1512 1511 1510 1509 1508 1507 1506 1505 1505 1503 1502 1502 1501 1501 1502 1502 1502 1502 1502 1502 1502 1503 1504 1504 1505 1507 1508 1509 1511 1513 1514 1517 1518 1520 1522 1524
1513 1513 1512 1514 1518 1518 1513 1508 1506 1507 1509 1508 1508 1508 1508 1507 1507 1506 1505 1504 1503 1502 1501 1500 1499 1499 1499 1499 1499 1499 1499 1499 1499 1500 1500 1501 1502 1503 1504 1505 1507 1508 1510 1512 1514 1516 1518 1520 1521
1516 1514 1512 1514 1518 1517 1510 1505 1501 1502 1503 1503 1504 1504 1504 1504 1504 1503 1502 1501 1500 1500 1499 1498 1497 1496 1496 1496 1496 1497 1497 1496 1497 1497 1497 1498 1499 1500 1501 1503 1504 1506 1507 1509 1511 1514 1515 1517 1519
1514 1512 1511 1513 1515 1515 1513 1498 1495 1496 1499 1500 1500 1501 1501 1501 1500 1500 1499 1498 1498 1497 1496 1495 1495 1494 1494 1494 1494 1494 1494 1494 1494 1495 1495 1496 1496 1497 1498 1500 1502 1503 1505 1507 1509 1511 1513 1514 1517
1510 1512 1514 1514 1512 1506 1511 1500 1487 1491 1494 1495 1496 1497 1497 1498 1497 1497 1497 1496 1495 1494 1494 1493 1492 1492 1492 1491 1491 1491 1491 1491 1491 1492 1492 1493 1494 1494 1496 1497 1499 1501 1502 1504 1506 1508 1510 1512 1513
1511 1514 1514 1513 1511 1509 1508 1505 1484 1489 1489 1489 1492 1493 1494 1494 1494 1494 1494 1493 1492 1492 1491 1490 1490 1490 1489 1489 1489 1489 1489 1489 1489 1489 1490 1491 1491 1492 1493 1495 1496 1498 1500 1502 1503 1505 1508 1510 1511
1515 1515 1515 1513 1510 1506 1501 1501 1483 1482 1482 1484 1487 1489 1490 1491 1491 1492 1491 1491 1490 1489 1489 1488 1487 1487 1487 1486 1486 1486 1486 1486 1487 1487 1487 1488 1489 1490 1491 1492 1494 1496 1497 1499 1501 1502 1505 1507 1509
1513 1510 1507 1505 1503 1494 1501 1500 1484 1478 1481 1483 1484 1486 1487 1488 1489 1489 1488 1488 1487 1486 1486 1485 1485 1484 1484 1484 1484 1484 1484 1484 1484 1484 1485 1486 1487 1488 1488 1490 1491 1493 1495 1496 1498 1499 1502 1504 1506
1509 1506 1502 1499 1491 1487 1500 1492 1478 1480 1482 1483 1484 1485 1485 1486 1486 1486 1485 1484 1483 1483 1483 1482 1482 1482 1482 1482 1482 1482 1482 1482 1482 1483 1483 1484 1485 1485 1486 1488 1489 1491 1492 1494 1496 1497 1499 1501 1502
1506 1505 1503 1502 1500 1496 1483 1481 1479 1479 1480 1481 1482 1482 1483 1483 1483 1483 1482 1482 1481 1480 1480 1479 1479 1479 1479 1479 1480 1480 1480 1480 1480 1481 1481 1482 1483 1483 1484 1485 1487 1488 1490 1491 1493 1494 1496 1497 1499
1507 1504 1505 1503 1498 1488 1478 1477 1473 1474 1475 1477 1479 1480 1480 1480 1480 1480 1479 1478 1478 1478 1477 1477 1477 1476 1476 1477 1477 1477 1477 1478 1478 1479 1479 1479 1480 1481 1482 1483 1484 1485 1487 1488 1490 1491 1492 1494 1496
1507 1507 1501 1497 1493 1488 1479 1471 1468 1470 1472 1475 1477 1478 1478 1478 1478 1477 1476 1476 1475 1475 1474 1474 1474 1474 1474 1474 1474 1475 1475 1475 1476 1476 1476 1477 1478 1478 1479 1480 1482 1483 1484 1485 1487 1488 1489 1491 1492
1502 1500 1500 1498 1495 1491 1483 1474 1471 1472 1474 1476 1476 1476 1476 1476 1476 1475 1474 1473 1472 1472 1472 1471 1471 1471 1471 1471 1472 1472 1472 1473 1473 1474 1474 1474 1475 1476 1477 1478 1479 1480 1481 1482 1484 1485 1486 1487 1488